• In Russia
  • List of Countries
  • For 7 days
  • Water Temperature
  • Weather Map
  • Weather Widgets
  • user-avatar
    Login

    Hourly Weather Prutz

    Today, 17 November, Sunday

    Time Temperature Precipitation Wind Pressure Humidity
    00:00 -2°C° 0.2 mm 1 mps 626 mmHg 91%
    01:00 -1°C° 0.2 mm 1 mps 625 mmHg 92%
    02:00 -1°C° 1.8 mm 1 mps 625 mmHg 94%
    03:00 -1°C° 1.8 mm 1 mps 624 mmHg 95%
    04:00 -1°C° 1.8 mm 1 mps 624 mmHg 97%
    05:00 -1°C° 3.7 mm 1 mps 623 mmHg 97%
    06:00 -2°C° 3.7 mm 0 mps 623 mmHg 97%
    07:00 -2°C° 3.7 mm 0 mps 622 mmHg 97%
    08:00 0°C° 3.2 mm 1 mps 622 mmHg 97%
    09:00 0°C° 3.2 mm 1 mps 622 mmHg 97%
    10:00 -1°C° 3.2 mm 2 mps 622 mmHg 97%
    11:00 -1°C° 2.7 mm 2 mps 621 mmHg 97%
    12:00 +1°C° 2.7 mm 2 mps 621 mmHg 98%
    13:00 +1°C° 2.7 mm 2 mps 621 mmHg 98%
    14:00 +2°C° 1.6 mm 2 mps 621 mmHg 98%
    15:00 +2°C° 1.6 mm 2 mps 621 mmHg 97%
    16:00 +2°C° 1.6 mm 2 mps 621 mmHg 97%
    17:00 +1°C° 0.4 mm 2 mps 622 mmHg 96%
    18:00 +1°C° 0.4 mm 2 mps 622 mmHg 95%
    19:00 -1°C° 0.4 mm 2 mps 622 mmHg 94%
    20:00 -1°C° 0.1 mm 2 mps 622 mmHg 93%
    21:00 -2°C° 0.1 mm 2 mps 623 mmHg 92%
    22:00 -2°C° 0.1 mm 2 mps 623 mmHg 90%
    23:00 -2°C° 0 mm 2 mps 623 mmHg 90%

    Tomorrow, 18 November, Monday

    Time Temperature Precipitation Wind Pressure Humidity
    00:00 -3°C° 0 mm 2 mps 623 mmHg 90%
    01:00 -3°C° 0 mm 2 mps 623 mmHg 90%
    02:00 -4°C° 0 mm 2 mps 623 mmHg 90%
    03:00 -6°C° 0 mm 3 mps 623 mmHg 90%
    04:00 -7°C° 0 mm 3 mps 622 mmHg 90%
    05:00 -7°C° 0 mm 3 mps 623 mmHg 90%
    06:00 -8°C° 0 mm 3 mps 623 mmHg 89%
    07:00 -8°C° 0 mm 3 mps 623 mmHg 89%
    08:00 -7°C° 0 mm 3 mps 624 mmHg 88%
    09:00 -6°C° 0 mm 3 mps 625 mmHg 88%
    10:00 -5°C° 0 mm 3 mps 625 mmHg 87%
    11:00 -4°C° 0 mm 3 mps 626 mmHg 86%
    12:00 -2°C° 0 mm 2 mps 626 mmHg 85%
    13:00 -1°C° 0 mm 2 mps 626 mmHg 85%
    14:00 -2°C° 0 mm 2 mps 626 mmHg 86%
    15:00 -3°C° 0 mm 2 mps 626 mmHg 88%
    16:00 -4°C° 0 mm 2 mps 625 mmHg 90%
    17:00 -5°C° 0 mm 2 mps 625 mmHg 90%
    18:00 -6°C° 0 mm 2 mps 625 mmHg 90%
    19:00 -6°C° 0 mm 2 mps 625 mmHg 90%
    20:00 -4°C° 0.5 mm 1 mps 626 mmHg 92%
    21:00 -3°C° 0.5 mm 1 mps 626 mmHg 94%
    22:00 -4°C° 0.5 mm 0 mps 626 mmHg 96%
    23:00 -4°C° 1 mm 0 mps 626 mmHg 96%

    Day after tomorrow, 19 November, Tuesday

    Time Temperature Precipitation Wind Pressure Humidity
    00:00 -3°C° 1 mm 0 mps 627 mmHg 96%
    01:00 -3°C° 1 mm 0 mps 627 mmHg 97%
    02:00 -4°C° 0.4 mm 0 mps 627 mmHg 96%
    03:00 -3°C° 0.4 mm 1 mps 626 mmHg 96%
    04:00 -4°C° 0.4 mm 1 mps 626 mmHg 95%
    05:00 -4°C° 0 mm 1 mps 626 mmHg 94%
    06:00 -4°C° 0 mm 1 mps 626 mmHg 92%
    07:00 -6°C° 0 mm 1 mps 626 mmHg 91%
    08:00 -3°C° 0 mm 1 mps 627 mmHg 91%
    09:00 -2°C° 0 mm 1 mps 628 mmHg 91%
    10:00 0°C° 0 mm 1 mps 628 mmHg 91%
    11:00 0°C° 0 mm 1 mps 628 mmHg 92%
    12:00 +1°C° 0 mm 1 mps 629 mmHg 93%
    13:00 +1°C° 0 mm 1 mps 629 mmHg 93%
    14:00 +1°C° 0.1 mm 1 mps 629 mmHg 95%
    15:00 +1°C° 0.1 mm 1 mps 628 mmHg 96%
    16:00 0°C° 0.1 mm 1 mps 628 mmHg 97%
    17:00 -1°C° 0.1 mm 1 mps 628 mmHg 97%
    18:00 -2°C° 0.1 mm 1 mps 628 mmHg 96%
    19:00 -4°C° 0.1 mm 0 mps 628 mmHg 96%
    20:00 -3°C° 0 mm 1 mps 628 mmHg 95%
    21:00 -4°C° 0 mm 1 mps 628 mmHg 95%
    22:00 -4°C° 0 mm 1 mps 628 mmHg 94%
    23:00 -6°C° 0 mm 1 mps 628 mmHg 93%

    20 November, Wednesday

    Time Temperature Precipitation Wind Pressure Humidity
    00:00 -6°C° 0 mm 1 mps 628 mmHg 92%
    01:00 -7°C° 0 mm 2 mps 627 mmHg 91%
    02:00 -8°C° 0 mm 2 mps 627 mmHg 88%
    03:00 -8°C° 0 mm 2 mps 627 mmHg 86%
    04:00 -8°C° 0 mm 2 mps 627 mmHg 84%
    05:00 -8°C° 0 mm 2 mps 627 mmHg 82%
    06:00 -8°C° 0 mm 2 mps 627 mmHg 80%
    07:00 -9°C° 0 mm 2 mps 627 mmHg 78%
    08:00 -7°C° 0 mm 2 mps 627 mmHg 79%
    09:00 -5°C° 0 mm 2 mps 628 mmHg 79%
    10:00 -3°C° 0 mm 2 mps 629 mmHg 80%
    11:00 -2°C° 0 mm 2 mps 629 mmHg 80%
    12:00 -1°C° 0 mm 2 mps 629 mmHg 80%
    13:00 +1°C° 0 mm 2 mps 629 mmHg 80%
    14:00 -1°C° 0 mm 2 mps 629 mmHg 81%
    15:00 -3°C° 0 mm 2 mps 628 mmHg 81%
    16:00 -4°C° 0 mm 2 mps 628 mmHg 81%
    17:00 -5°C° 0 mm 2 mps 627 mmHg 77%
    18:00 -6°C° 0 mm 2 mps 627 mmHg 73%
    19:00 -9°C° 0 mm 3 mps 627 mmHg 68%
    20:00 -9°C° 0 mm 3 mps 627 mmHg 68%
    21:00 -9°C° 0 mm 3 mps 627 mmHg 67%
    22:00 -9°C° 0 mm 3 mps 627 mmHg 67%
    23:00 -9°C° 0 mm 3 mps 627 mmHg 66%

    21 November, Thursday

    Time Temperature Precipitation Wind Pressure Humidity
    00:00 -10°C° 0 mm 3 mps 627 mmHg 66%
    01:00 -10°C° 0 mm 3 mps 627 mmHg 66%
    02:00 -10°C° 0 mm 3 mps 626 mmHg 66%
    03:00 -10°C° 0 mm 3 mps 626 mmHg 66%
    04:00 -10°C° 0 mm 3 mps 626 mmHg 66%
    05:00 -10°C° 0 mm 3 mps 626 mmHg 66%
    06:00 -10°C° 0 mm 3 mps 626 mmHg 67%
    07:00 -9°C° 0 mm 3 mps 626 mmHg 67%
    08:00 -8°C° 0 mm 3 mps 627 mmHg 70%
    09:00 -7°C° 0 mm 3 mps 627 mmHg 74%
    10:00 -5°C° 0 mm 4 mps 627 mmHg 77%
    11:00 -4°C° 0 mm 4 mps 627 mmHg 80%
    12:00 -2°C° 0 mm 3 mps 627 mmHg 82%
    13:00 -1°C° 0 mm 3 mps 627 mmHg 85%
    14:00 -2°C° 0 mm 4 mps 627 mmHg 86%
    15:00 -3°C° 0 mm 4 mps 626 mmHg 88%
    16:00 -3°C° 0 mm 4 mps 626 mmHg 89%
    17:00 -4°C° 0 mm 4 mps 626 mmHg 89%
    18:00 -4°C° 0 mm 4 mps 625 mmHg 89%
    19:00 -5°C° 0 mm 4 mps 625 mmHg 89%
    20:00 -5°C° 0 mm 4 mps 626 mmHg 89%
    21:00 -5°C° 0 mm 4 mps 626 mmHg 88%
    22:00 -5°C° 0 mm 4 mps 626 mmHg 88%
    23:00 -5°C° 0 mm 4 mps 626 mmHg 88%

    22 November, Friday

    Time Temperature Precipitation Wind Pressure Humidity
    00:00 -5°C° 0 mm 4 mps 626 mmHg 88%
    01:00 -5°C° 0 mm 4 mps 626 mmHg 88%
    02:00 -5°C° 0 mm 4 mps 626 mmHg 88%
    03:00 -5°C° 0 mm 3 mps 626 mmHg 88%
    04:00 -5°C° 0 mm 3 mps 626 mmHg 88%
    05:00 -5°C° 0 mm 3 mps 626 mmHg 88%
    06:00 -5°C° 0 mm 3 mps 626 mmHg 88%
    07:00 -5°C° 0 mm 3 mps 626 mmHg 88%
    08:00 -3°C° 0 mm 4 mps 627 mmHg 89%
    09:00 -2°C° 0 mm 4 mps 627 mmHg 90%
    10:00 -1°C° 0 mm 4 mps 627 mmHg 91%
    11:00 0°C° 0.1 mm 4 mps 627 mmHg 93%
    12:00 0°C° 0.1 mm 4 mps 627 mmHg 94%
    13:00 +1°C° 0.1 mm 4 mps 627 mmHg 96%
    14:00 +1°C° 0.1 mm 4 mps 627 mmHg 94%
    15:00 +1°C° 0.1 mm 4 mps 627 mmHg 93%
    16:00 0°C° 0.1 mm 4 mps 627 mmHg 92%
    17:00 0°C° 0.1 mm 4 mps 627 mmHg 92%
    18:00 0°C° 0.1 mm 4 mps 627 mmHg 92%
    19:00 0°C° 0.1 mm 4 mps 627 mmHg 92%
    20:00 0°C° 0.1 mm 4 mps 627 mmHg 91%
    21:00 0°C° 0.1 mm 4 mps 628 mmHg 91%
    22:00 0°C° 0.1 mm 4 mps 628 mmHg 91%
    23:00 0°C° 0.1 mm 4 mps 628 mmHg 91%
    Show more